[[{"header":{"parameterUnit":"m.s-1","parameterCategory":1,"la1":30.2991,"la2":30.254,"lo1":-89.0895,"lo2":-89.0444,"dy":0.0017,"dx":0.0017,"nx":28,"ny":28,"refTime":"2025-09-16T21:00:00:Z","depth":0,"parameterNumber":2,"parameterNumberName":"U-component_of_WINDS"},"data":[0,0,0,0,0,0,0,0,0,0,0,0,0,0,0,0,0,0,0,0,0,0,0,0,0,0,0,0,0,0,0,0,0,0,0,0,0,0,0,0,0,0,0,0,0,0,0,0,0,0,0,0,0,0,0,0,0,0,-1.7607,-1.7608,0,-1.7697,-1.7698,-1.7699,-1.7701,-1.77,-1.7699,-1.7698,-1.7786,-1.7789,-1.7793,0,0,0,0,0,0,0,0,0,0,0,0,0,-1.7433,-1.7436,-1.7607,-1.7608,-1.7609,-1.7697,-1.7698,-1.77,-1.7701,-1.77,-1.7698,-1.7697,-1.7785,-1.7789,-1.7793,0,0,0,0,0,0,0,0,0,0,0,0,0,-1.7514,-1.7437,-1.7606,-1.762,-1.7623,-1.7697,-1.7698,-1.77,-1.7701,-1.77,-1.7698,-1.7696,-1.7784,-1.7789,-1.7794,-1.7859,0,0,-1.7809,-1.7811,0,0,0,0,0,0,0,0,-1.7509,-1.752,-1.7617,-1.762,-1.7622,-1.7686,-1.7669,-1.7753,-1.7702,-1.7671,-1.7698,-1.7696,-1.7754,-1.7761,-1.7782,-1.7863,-1.7867,-1.781,-1.7813,-1.7815,-1.7816,0,0,0,0,0,0,0,-1.7504,-1.7517,-1.7642,-1.7619,-1.7622,-1.7621,-1.7631,-1.7685,-1.7721,-1.7674,-1.7674,-1.7685,-1.7755,-1.7777,-1.7784,-1.7868,-1.781,-1.7814,-1.7817,-1.7819,-1.8008,-1.801,0,0,0,0,0,0,-1.7496,-1.7512,-1.7639,-1.7645,-1.7561,-1.7626,-1.7637,-1.7667,-1.772,-1.7727,-1.7686,-1.7685,-1.7769,-1.7778,-1.7787,-1.7867,-1.7815,-1.782,-1.7823,-1.8006,-1.8009,-1.8011,0,0,0,0,0,0,-1.7492,-1.7507,-1.7636,-1.7579,-1.7595,-1.7631,-1.7665,-1.767,-1.7692,-1.773,-1.7736,-1.7703,-1.7768,-1.778,-1.7842,-1.787,-1.7822,-1.7827,-1.8004,-1.8007,-1.801,-1.8028,0,0,0,0,0,0,-1.7487,-1.7506,-1.7531,-1.7579,-1.7598,-1.7689,-1.7667,-1.7673,-1.7701,-1.77,-1.7747,-1.7753,-1.7768,-1.7834,-1.7847,-1.7876,-1.7831,-1.8001,-1.8005,-1.8009,-1.8024,-1.8031,-1.8036,0,0,0,0,0,-1.7481,-1.7531,-1.7533,-1.7548,-1.7631,-1.7691,-1.7702,-1.7719,-1.7704,-1.7729,-1.7754,-1.7751,-1.7866,-1.784,-1.7854,-1.7886,-1.8,-1.8004,-1.8008,-1.8022,-1.8029,-1.8036,0,0,0,0,0,0,-1.7484,-1.7538,-1.754,-1.7608,-1.7645,-1.7691,-1.7724,-1.7726,-1.7768,-1.7765,-1.7784,-1.7794,-1.7855,-1.7877,-1.7848,-1.7953,-1.7931,-1.7938,-1.7936,-1.7944,-1.7949,-1.7942,-1.7835,0,0,0,0,0,-1.7493,-1.7538,-1.7583,-1.7638,-1.7657,-1.7688,-1.7714,-1.7725,-1.7764,-1.7779,-1.7808,-1.7845,-1.7889,-1.7918,-1.7961,-1.8028,-1.8038,-1.8058,-1.8063,-1.8068,-1.8073,-1.8112,-1.8121,-1.8025,-1.8025,-1.8025,0,0,-1.751,-1.7546,-1.7573,-1.764,-1.767,-1.7716,-1.77,-1.7749,-1.7783,-1.7786,-1.7846,-1.7869,-1.7912,-1.7977,-1.8007,-1.7997,-1.8103,-1.8073,-1.8077,-1.808,-1.8117,-1.8126,-1.8134,-1.8028,-1.8028,-1.8027,0,0,-1.7567,-1.7598,-1.7648,-1.768,-1.7727,-1.7747,-1.7759,-1.7806,-1.7822,-1.7883,-1.7887,-1.7927,-1.8003,-1.8034,-1.8059,-1.813,-1.8129,-1.8143,-1.8173,-1.821,-1.8217,-1.8224,-1.8249,-1.8258,-1.8149,-1.8149,-1.8149,0,-1.7582,-1.7653,-1.7673,-1.7723,-1.7753,-1.776,-1.781,-1.7839,-1.7897,-1.7917,-1.7905,-1.8002,-1.8031,-1.8104,-1.8122,-1.8142,-1.8156,-1.8137,-1.8215,-1.8222,-1.8228,-1.8252,-1.8262,-1.8151,-1.8151,-1.815,-1.815,0,-1.767,-1.7719,-1.7754,-1.7812,-1.7845,-1.7895,-1.7923,-1.7954,-1.7963,-1.7984,-1.8047,-1.8083,-1.8133,-1.8152,-1.816,-1.8226,-1.8219,-1.8211,-1.8189,-1.8239,-1.8261,-1.8271,-1.8153,-1.8152,-1.8152,-1.8151,0,0,-1.7727,-1.7799,-1.7811,-1.7838,-1.7892,-1.7929,-1.798,-1.8032,-1.8058,-1.8098,-1.8141,-1.8207,-1.8201,-1.8229,-1.8241,-1.8274,-1.8328,-1.8262,-1.8264,-1.8273,-1.8404,-1.8408,-1.8419,-1.8329,-1.8331,-1.8332,-1.84,0,-1.7789,-1.788,-1.7902,-1.798,-1.8025,-1.8034,-1.8078,-1.8116,-1.8138,-1.8179,-1.8203,-1.8249,-1.8238,-1.8256,-1.8289,-1.8314,-1.8354,-1.831,-1.8367,-1.8369,-1.8355,-1.8431,-1.8436,-1.8498,-1.8409,-1.8411,-1.8412,0,-1.7871,-1.7916,-1.7999,-1.8049,-1.8069,-1.8108,-1.8158,-1.8198,-1.8241,-1.8255,-1.8289,-1.8298,-1.8351,-1.8328,-1.8401,-1.837,-1.8395,-1.8412,-1.8415,-1.8419,-1.8392,-1.8437,-1.8518,-1.8527,-1.8426,-1.8425,-1.8424,0,-1.7904,-1.7985,-1.8046,-1.8069,-1.8128,-1.8156,-1.8182,-1.8223,-1.8254,-1.8297,-1.8317,-1.8365,-1.8392,-1.8429,-1.8451,-1.8432,-1.8522,-1.8501,-1.8534,-1.8534,-1.8551,-1.8549,-1.8636,-1.8569,-1.8569,-1.8569,-1.8569,0,-1.797,-1.802,-1.8062,-1.8099,-1.8156,-1.8181,-1.8236,-1.8262,-1.8299,-1.8341,-1.8352,-1.839,-1.8418,-1.8461,-1.8478,-1.8536,-1.8548,-1.856,-1.8564,-1.8558,-1.8557,-1.8574,-1.8569,-1.8572,-1.8571,-1.8571,-1.857,0,-1.8015,-1.8045,-1.8112,-1.8164,-1.8178,-1.8218,-1.8262,-1.8298,-1.8322,-1.8375,-1.8389,-1.8425,-1.8476,-1.8503,-1.8566,-1.8578,-1.8643,-1.8644,-1.8628,-1.863,-1.8661,-1.8658,-1.8761,-1.8776,-1.87,-1.8701,-1.8702,0,-1.8054,-1.8093,-1.815,-1.818,-1.8207,-1.8255,-1.8287,-1.8313,-1.8345,-1.8399,-1.8429,-1.8481,-1.8524,-1.8605,-1.8636,-1.8685,-1.8687,-1.8721,-1.8694,-1.8688,-1.8687,-1.8684,-1.8688,-1.8724,-1.8725,-1.8726,-1.8726,0,-1.8119,-1.8133,-1.8179,-1.8231,-1.827,-1.8311,-1.8353,-1.8376,-1.8409,-1.8445,-1.8499,-1.8532,-1.8598,-1.865,-1.8701,-1.8727,-1.8732,-1.8735,-1.8745,-1.8739,-1.8727,-1.8733,-1.864,-1.8731,-1.8731,-1.873,-1.873,-1.873,-1.8162,-1.8198,-1.8244,-1.8296,-1.833,-1.8369,-1.8406,-1.8436,-1.8482,-1.8538,-1.8552,-1.8608,-1.8651,-1.8722,-1.875,-1.8794,-1.8786,-1.8801,-1.8805,-1.8808,-1.8809,-1.8722,-1.8803,-1.8803,-1.8803,-1.8803,-1.8803,0,-1.8227,-1.8259,-1.8306,-1.8365,-1.8405,-1.841,-1.8456,-1.8489,-1.8539,-1.8581,-1.8624,-1.8686,-1.8736,-1.8773,-1.8825,-1.8853,-1.8857,-1.8866,-1.8863,-1.8869,-1.8812,-1.8798,-1.8862,-1.8862,-1.8862,-1.8862,-1.8862,-1.8862,-1.8266,-1.8327,-1.8347,-1.8426,-1.8457,-1.8513,-1.854,-1.8576,-1.8609,-1.8678,-1.8721,-1.8746,-1.8786,-1.8841,-1.8887,-1.8897,-1.8915,-1.8924,-1.8933,-1.8879,-1.8873,-1.8867,-1.8853,-1.8928,-1.8928,-1.8986,-1.8986,-1.8987]},{"header":{"parameterUnit":"m.s-1","parameterCategory":1,"la1":30.2991,"la2":30.254,"lo1":-89.0895,"lo2":-89.0444,"dy":0.0017,"dx":0.0017,"nx":28,"ny":28,"refTime":"2025-09-16T21:00:00:Z","depth":0,"parameterNumber":3,"parameterNumberName":"V-component_of_WINDS"},"data":[0,0,0,0,0,0,0,0,0,0,0,0,0,0,0,0,0,0,0,0,0,0,0,0,0,0,0,0,0,0,0,0,0,0,0,0,0,0,0,0,0,0,0,0,0,0,0,0,0,0,0,0,0,0,0,0,0,0,-1.0635,-1.0636,0,-1.0697,-1.0698,-1.0699,-1.071,-1.0709,-1.0709,-1.0708,-1.0772,-1.0774,-1.0776,0,0,0,0,0,0,0,0,0,0,0,0,0,-1.0524,-1.0526,-1.0635,-1.0636,-1.0636,-1.0697,-1.0698,-1.0699,-1.071,-1.0709,-1.0708,-1.0708,-1.0771,-1.0774,-1.0777,0,0,0,0,0,0,0,0,0,0,0,0,0,-1.0578,-1.0527,-1.0635,-1.0649,-1.0651,-1.0697,-1.0698,-1.0699,-1.071,-1.0709,-1.0708,-1.0707,-1.077,-1.0774,-1.0777,-1.0813,0,0,-1.0787,-1.0788,0,0,0,0,0,0,0,0,-1.0575,-1.0582,-1.0646,-1.0648,-1.065,-1.0695,-1.0683,-1.0738,-1.071,-1.0687,-1.0708,-1.0707,-1.0747,-1.0752,-1.0766,-1.0816,-1.0819,-1.0787,-1.0789,-1.0791,-1.0792,0,0,0,0,0,0,0,-1.0571,-1.058,-1.066,-1.0647,-1.065,-1.0652,-1.0659,-1.0693,-1.0721,-1.0689,-1.069,-1.0698,-1.0748,-1.0762,-1.0767,-1.082,-1.0787,-1.079,-1.0792,-1.0793,-1.0904,-1.0905,0,0,0,0,0,0,-1.0565,-1.0576,-1.0658,-1.0662,-1.061,-1.0655,-1.0663,-1.0681,-1.0721,-1.0726,-1.0698,-1.0698,-1.0757,-1.0763,-1.077,-1.0815,-1.0791,-1.0794,-1.0796,-1.0903,-1.0904,-1.0905,0,0,0,0,0,0,-1.0563,-1.0572,-1.0655,-1.0619,-1.063,-1.0658,-1.0679,-1.0683,-1.0698,-1.0727,-1.0732,-1.0708,-1.0757,-1.0765,-1.0802,-1.0818,-1.0795,-1.0798,-1.0902,-1.0904,-1.0905,-1.0907,0,0,0,0,0,0,-1.056,-1.0571,-1.0585,-1.062,-1.0632,-1.0687,-1.068,-1.0685,-1.0703,-1.0703,-1.0738,-1.0743,-1.0757,-1.0798,-1.0806,-1.0822,-1.0801,-1.0901,-1.0903,-1.0904,-1.0906,-1.0908,-1.091,0,0,0,0,0,-1.0556,-1.0583,-1.0586,-1.0596,-1.065,-1.0688,-1.0695,-1.0711,-1.0704,-1.0719,-1.0738,-1.0742,-1.0814,-1.0801,-1.0811,-1.0828,-1.09,-1.0902,-1.0904,-1.0905,-1.0908,-1.091,0,0,0,0,0,0,-1.055,-1.0588,-1.0592,-1.0631,-1.0656,-1.069,-1.0708,-1.0714,-1.0741,-1.074,-1.0758,-1.0766,-1.0803,-1.0819,-1.0803,-1.0866,-1.0857,-1.0861,-1.0854,-1.0857,-1.0859,-1.0855,-1.0804,0,0,0,0,0,-1.0554,-1.0581,-1.0613,-1.0645,-1.0657,-1.068,-1.0697,-1.0708,-1.0734,-1.0745,-1.0767,-1.0792,-1.0821,-1.084,-1.0868,-1.0908,-1.0916,-1.0924,-1.0927,-1.0928,-1.0932,-1.0955,-1.096,-1.0912,-1.0912,-1.0912,0,0,-1.0561,-1.0585,-1.0601,-1.0644,-1.0665,-1.0693,-1.0689,-1.0719,-1.0741,-1.0749,-1.0787,-1.0803,-1.0833,-1.0872,-1.089,-1.0887,-1.0947,-1.0931,-1.0932,-1.0935,-1.0958,-1.0962,-1.0966,-1.0914,-1.0914,-1.0913,0,0,-1.059,-1.061,-1.0639,-1.066,-1.0691,-1.0707,-1.0714,-1.0746,-1.0758,-1.0795,-1.0803,-1.0828,-1.0877,-1.0899,-1.0916,-1.0952,-1.0957,-1.0961,-1.0974,-1.0996,-1.1,-1.1003,-1.1017,-1.1021,-1.0964,-1.0964,-1.0964,0,-1.0595,-1.0638,-1.0654,-1.0684,-1.0703,-1.0712,-1.0742,-1.0761,-1.08,-1.0813,-1.0808,-1.087,-1.0891,-1.0935,-1.0944,-1.0957,-1.0966,-1.0957,-1.0998,-1.1001,-1.1005,-1.1018,-1.1023,-1.0964,-1.0964,-1.0964,-1.0964,0,-1.0643,-1.0673,-1.0693,-1.073,-1.0751,-1.0781,-1.0802,-1.0821,-1.0829,-1.0845,-1.0883,-1.0908,-1.0942,-1.0953,-1.0961,-1.0999,-1.0996,-1.0994,-1.0986,-1.1009,-1.1022,-1.1027,-1.0965,-1.0965,-1.0965,-1.0964,0,0,-1.0671,-1.0717,-1.0724,-1.0741,-1.0776,-1.08,-1.083,-1.0863,-1.0879,-1.0905,-1.0932,-1.0973,-1.0972,-1.0991,-1.1002,-1.1021,-1.1049,-1.1017,-1.1018,-1.1023,-1.1093,-1.1095,-1.1101,-1.1052,-1.1053,-1.1054,-1.1091,0,-1.0704,-1.0758,-1.0774,-1.082,-1.0848,-1.0857,-1.0883,-1.0907,-1.0923,-1.0949,-1.0966,-1.0995,-1.0991,-1.1003,-1.1023,-1.1042,-1.1064,-1.1039,-1.1077,-1.1078,-1.1071,-1.1107,-1.1109,-1.1143,-1.1096,-1.1097,-1.1098,0,-1.075,-1.0778,-1.0827,-1.0859,-1.0871,-1.0894,-1.0926,-1.0951,-1.0979,-1.0989,-1.101,-1.1019,-1.1051,-1.104,-1.1085,-1.1068,-1.1084,-1.1096,-1.1098,-1.1103,-1.109,-1.1114,-1.1155,-1.116,-1.1106,-1.1105,-1.1105,0,-1.0766,-1.0816,-1.0851,-1.0866,-1.0904,-1.092,-1.0937,-1.0964,-1.0983,-1.101,-1.1023,-1.1054,-1.1071,-1.1095,-1.1112,-1.1102,-1.1155,-1.1145,-1.1165,-1.1164,-1.1176,-1.1176,-1.1221,-1.1185,-1.1185,-1.1185,-1.1185,0,-1.0803,-1.0832,-1.0859,-1.0882,-1.0915,-1.0932,-1.0965,-1.0982,-1.1006,-1.1032,-1.1041,-1.1065,-1.1085,-1.1112,-1.1125,-1.1161,-1.1168,-1.1178,-1.1181,-1.1177,-1.1176,-1.1189,-1.1188,-1.1186,-1.1186,-1.1186,-1.1186,0,-1.0827,-1.0846,-1.0886,-1.0919,-1.0927,-1.0951,-1.0979,-1.1001,-1.1017,-1.1049,-1.1058,-1.1082,-1.1114,-1.1133,-1.1174,-1.1182,-1.1222,-1.1224,-1.1213,-1.1215,-1.1233,-1.1232,-1.1289,-1.1298,-1.1255,-1.1256,-1.1256,0,-1.0849,-1.0872,-1.0908,-1.0926,-1.0943,-1.0971,-1.0991,-1.1008,-1.1028,-1.1062,-1.108,-1.1112,-1.114,-1.119,-1.1212,-1.1243,-1.1246,-1.1264,-1.1251,-1.1247,-1.1248,-1.1246,-1.1249,-1.1267,-1.1267,-1.1267,-1.1267,0,-1.0887,-1.0895,-1.0923,-1.0955,-1.0978,-1.1003,-1.1029,-1.1043,-1.1065,-1.1087,-1.1119,-1.114,-1.1182,-1.1214,-1.1247,-1.1264,-1.127,-1.1271,-1.1278,-1.1275,-1.1268,-1.1273,-1.122,-1.127,-1.127,-1.127,-1.127,-1.1269,-1.0912,-1.0933,-1.0961,-1.0992,-1.1013,-1.1037,-1.1059,-1.1078,-1.1106,-1.1141,-1.1149,-1.1184,-1.1212,-1.1256,-1.1274,-1.1302,-1.1299,-1.1308,-1.131,-1.1312,-1.1313,-1.1262,-1.1307,-1.1307,-1.1307,-1.1307,-1.1307,0,-1.0951,-1.097,-1.0998,-1.1033,-1.1058,-1.106,-1.1089,-1.1109,-1.1139,-1.1165,-1.1191,-1.1229,-1.1261,-1.1285,-1.1317,-1.1335,-1.1338,-1.1343,-1.1342,-1.1346,-1.1314,-1.1305,-1.1339,-1.1339,-1.1339,-1.1339,-1.1339,-1.1339,-1.0974,-1.1011,-1.1023,-1.107,-1.1088,-1.1122,-1.1138,-1.116,-1.1181,-1.1223,-1.1249,-1.1265,-1.129,-1.1324,-1.1353,-1.1359,-1.1371,-1.1375,-1.1382,-1.1352,-1.1348,-1.1345,-1.1337,-1.1378,-1.1378,-1.1413,-1.1413,-1.1413]}]]